Location: Bühlhof
(48.7849°N, 8.6361°E)
Time: 22:47:44
(UTC+00:00)

USA 215 - Pass Details

Date: 19 January 2026
Orbit: 1098 x 1109 km, 123.0° (Epoch: 10 January)

Event Time Altitude Azimuth Distance (km) Brightness Sun altitude
Exits shadow 18:21:41 38° 106° (ESE) 1,613 3.6 -22.4°
Maximum altitude 18:22:58 42° 133° (SE) 1,520 3.7 -22.6°
Drops below altitude 10° 18:29:06 10° 203° (SSW) 2,950 5.8 -23.6°
Sets 18:31:43 0° 210° (SSW) 3,903 6.6 -24.1°
